Regional Weather Roundup
Issued by NWS

Home | Current Version | Previous Version | Graphics & Text | Print | Product List | Glossary On
Versions: 1 2 3 4 5 6 7 8 9 10 11 12 13 14 15 16 17 18 19 20 21 22 23 24 25 26 27 28 29 30 31 32 33 34 35 36 37 38 39 40 41 42 43 44 45 46 47 48 49 50
000
ASUS43 KMPX 220701
RWRMN
WEATHER ROUNDUP FOR MINNESOTA
NATIONAL WEATHER SERVICE TWIN CITIES/CHANHASSEN MN
100 AM CST THU FEB 22 2018


NOTE: "FAIR" INDICATES FEW OR NO CLOUDS BELOW 12,000 FEET WITH NO
SIGNIFICANT WEATHER AND/OR OBSTRUCTIONS TO VISIBILITY. N/A MEANS
CURRENT SKY AND/OR WEATHER CONDITIONS ARE NOT AVAILABLE.

MNZ060>063-068>070-220800-
   Twin Cities Metro

CITY           SKY/WX    TMP DP  RH WIND       PRES   REMARKS
TWIN CITIES    MOCLDY     9   5  84 NE5       30.62S WCI   1
ST PAUL        FAIR      10   5  80 CALM      30.64F
CRYSTAL        FAIR       5   0  79 CALM      30.61S
BLAINE         FAIR       7   1  78 CALM      30.61S
LAKEVILLE        N/A      1   0  92 CALM      30.60F
EDEN PRAIRIE   FAIR       6   1  80 CALM      30.60S
SOUTH ST PAUL  FAIR       7   3  85 CALM      30.62S
LAKE ELMO      FAIR       3   0  85 CALM      30.62S
$$
MNZ001>005-007-008-013>017-022>024-027-028-220800-
   Northwest Minnesota

CITY           SKY/WX    TMP DP  RH WIND       PRES   REMARKS
BEMIDJI        FAIR     -14 -19  81 E3        30.52S
HALLOCK        FAIR      -6  -9  84 SE12      30.51S WCI -24
ROSEAU         FAIR      -6 -11  77 S6        30.51S WCI -18
WARROAD        FAIR      -2  -6  84 SW3       30.51S
THIEF RVR FALL FAIR      -1  -6  79 S9        30.53S WCI -16
CROOKSTON      FAIR      -2  -8  78 SE8       30.54S WCI -17
FOSSTON        FAIR       0  -6  78 S7        30.52S WCI -13
DETROIT LAKES  FAIR       1  -4  78 SE6       30.53S WCI -10
MOORHEAD       FAIR       0  -8  71 SE5       30.54F WCI -10
PARK RAPIDS    FAIR      -9 -15  75 SE5       30.52F WCI -20
MAHNOMEN       FAIR       4  -4  71 SE7       30.51F WCI  -9
$$
MNZ006-009>011-018-025>026-220800-
   North Central Minnesota

CITY           SKY/WX    TMP DP  RH WIND       PRES   REMARKS
BAUDETTE       FAIR      -7 -11  83 S3        30.51S
FLAG ISLAND    FAIR      -8 -11  84 S6        30.50S WCI -21
INTL FALLS     FAIR      -6  -9  86 CALM      30.54S
WASKISH        FAIR     -15 -18  84 CALM      30.53S
BIG FORK       FAIR      -4  -9  77 CALM      30.54S
LONGVILLE      FAIR     -11 -17  77 CALM      30.56S
GRAND RAPIDS   FAIR      -3  -6  87 S3        30.58F
CRANE LAKE     FAIR     -15 -18  84 CALM      30.59R
ORR            FAIR       3  -4  72 CALM      30.53R
COOK             N/A     -2  -8  78 S3        30.56R
WALKER         FAIR      -2  -8  77 CALM      30.54S
$$
MNZ012-019>021-037-220800-
   Northeast Minnesota

CITY           SKY/WX    TMP DP  RH WIND       PRES   REMARKS
DULUTH         FAIR       8  -2  63 W7        30.57S WCI  -3
ELY            FAIR       0  -6  78 CALM      30.56R
HIBBING        FAIR     -14 -19  79 CALM      30.56S
DULUTH HARBOR  FAIR       9   0  66 SW6       30.65S WCI  -1
TWO HARBORS    FAIR       1  -6  71 W5        30.58S WCI  -8
GRAND MARAIS     N/A     16   1  51 W6        30.63R WCI   7
G MARAIS ARPRT FAIR       7  -2  66 W3        30.53R
$$
MNZ029>031-032-039>041-046>048-054>057-064-220800-
   West Central Minnesota

CITY           SKY/WX    TMP DP  RH WIND       PRES   REMARKS
FERGUS FALLS   FAIR       5  -2  72 SE7       30.55S WCI  -7
WHEATON        FAIR      -6  -9  84 SE7       30.56F WCI -20
MORRIS         FAIR      -2  -8  78 E8        30.54S WCI -17
ALEXANDRIA     FAIR      -1  -5  82 CALM      30.54F
ELBOW LAKE     FAIR       0  -4  81 SE7       30.54F WCI -13
WADENA         FAIR      -4  -8  84 CALM      30.54F
GLENWOOD       FAIR       1  -2  85 E5        30.56S WCI  -8
APPLETON       FAIR      -2  -6  84 E5        30.56F WCI -12
BENSON         FAIR      -2  -6  84 S5        30.58R WCI -12
ORTONVILLE     FAIR       1  -4  78 SE6       30.54S WCI -10
MADISON        FAIR       1  -4  78 SE5       30.55F WCI  -8
WILLMAR        FAIR       0  -4  85 E5        30.60S WCI -10
$$
MNZ033>034-036-042>043-049>051-058-059-220800-
   Central Minnesota

CITY           SKY/WX    TMP DP  RH WIND       PRES   REMARKS
ST CLOUD       FAIR      -5  -8  87 CALM      30.60S
SAUK CENTRE    FAIR      -6  -9  86 CALM      30.57R
PAYNESVILLE    FAIR      -4  -8  86 CALM      30.59R
AITKIN         FAIR      -6  -9  84 CALM      30.58S
PINE RIVER     FAIR      -9 -15  77 CALM      30.58S
BRAINERD       FAIR      -5 -11  75 CALM      30.58S
STAPLES        FAIR      -8 -13  77 CALM      30.55F
LONG PRAIRIE   FAIR      -4  -8  84 CALM      30.56S
LITTLE FALLS   FAIR      -6 -13  71 CALM      30.59S
LITCHFIELD     FAIR       1   0  92 CALM      30.59S
BUFFALO        FAIR      -1  -5  80 CALM      30.62S
MAPLE LAKE     FAIR       0  -2  90 CALM      30.61S
HUTCHINSON     FAIR       4   0  82 CALM      30.59F
$$
MNZ037-044-045-052-053-220800-
   East Central Minnesota

CITY           SKY/WX    TMP DP  RH WIND       PRES   REMARKS
PRINCETON      FAIR      -2  -6  84 CALM      30.60S
CAMBRIDGE        N/A      1  -6  71 CALM      30.62S
RUSH CITY      MOCLDY    -1  -6  82 CALM      30.63S
MOOSE LAKE     FAIR      -6  -9  84 CALM      30.60S
HINCKLEY       FAIR      -4  -8  84 CALM      30.62S
CLOQUET        FAIR       1  -4  78 W3        30.58F
MCGREGOR       FAIR       1  -4  78 CALM      30.59S
$$
MNZ071>073-080-081-089-090-097-098-220800-
   Southwest Minnesota

CITY           SKY/WX    TMP DP  RH WIND       PRES   REMARKS
MONTEVIDEO     FAIR       1  -2  85 S7        30.56F WCI -11
GRANITE FALLS  FAIR       5  -1  77 E5        30.58F WCI  -4
CANBY          FAIR      -1  -5  81 CALM      30.54F
MARSHALL       CLOUDY     4  -1  80 S3        30.54F
REDWOOD FALLS  FAIR       5   1  83 E3        30.56F
OLIVIA         FAIR       5   0  78 E3        30.57F
PIPESTONE      FAIR       9   3  78 S6        30.49S WCI  -1
WORTHINGTON    MOCLDY    13   8  81 SE7       30.50F WCI   3
JACKSON        MOCLDY    10   5  79 SE7       30.52F WCI   0
TRACY          FAIR       8   4  82 SE5       30.52F WCI   0
SLAYTON        FAIR       6   2  84 CALM      30.51S
$$
MNZ065>067-074>077-082>085-091>093-220800-
   South Central Minnesota

CITY           SKY/WX    TMP DP  RH WIND       PRES   REMARKS
MANKATO        FAIR       8   4  83 E6        30.59F WCI  -2
NEW ULM        FAIR      10   3  72 CALM      30.57F
ST JAMES       MOCLDY    12   7  79 E3        30.58S
FAIRMONT       FAIR       9   4  80 E6        30.56F WCI  -1
GLENCOE        FAIR       6   1  81 CALM      30.59F
FARIBAULT      FAIR       5   1  85 CALM      30.59S
OWATONNA       FAIR       9   5  85 CALM      30.58S
WASECA         FAIR      12   7  79 CALM      30.59S
ALBERT LEA     FAIR      16  10  79 CALM      30.57F
$$
MNZ078>079-086>088-094>096-220800-
   Southeast Minnesota

CITY           SKY/WX    TMP DP  RH WIND       PRES   REMARKS
ROCHESTER      FAIR      14  10  84 E6        30.58S WCI   5
RED WING       FAIR       5   0  78 CALM      30.62F
STANTON        FAIR       4   1  86 CALM      30.60S
DODGE CENTER   FAIR      10   7  85 E5        30.57F WCI   2
WINONA         FAIR      16  12  86 CALM      30.63S
AUSTIN         FAIR      18  14  86 CALM      30.57F
PRESTON        CLOUDY    17  12  82 E3        30.58F
$$
ABBREVIATIONS USED IN REMARKS
   TC - TEMPERATURES IN CELSIUS
  WCI - WIND CHILL INDEX
   HX - HEAT INDEX
  VSB - VISIBILITY
$$




USA.gov is the U.S. government's official web portal to all federal, state and local government web resources and services.